www.pogodaiklimat.ru
ПОГОДА в Загреб-Градеце
Время
(UTC), дата
07 11.10
08 11.10
09 11.10
10 11.10
11 11.10
12 11.10
13 11.10
14 11.10
15 11.10
16 11.10
17 11.10
18 11.10
19 11.10
20 11.10
21 11.10
00 12.10
03 12.10
04 12.10
05 12.10
06 12.10
07 12.10
08 12.10
09 12.10
10 12.10
11 12.10
12 12.10
13 12.10
14 12.10
15 12.10
16 12.10
17 12.10
18 12.10
19 12.10
20 12.10
21 12.10
00 13.10
03 13.10
04 13.10
05 13.10
06 13.10
07 13.10
08 13.10
09 13.10
10 13.10
11 13.10
12 13.10
13 13.10
14 13.10
15 13.10
16 13.10
17 13.10
18 13.10
19 13.10
20 13.10
21 13.10
00 14.10
03 14.10
04 14.10
05 14.10
06 14.10
07 14.10
08 14.10
09 14.10
10 14.10
11 14.10
12 14.10
13 14.10
14 14.10
15 14.10
16 14.10
17 14.10
18 14.10
19 14.10
20 14.10
21 14.10
00 15.10
03 15.10
04 15.10
05 15.10
06 15.10
07 15.10
08 15.10
09 15.10
10 15.10
11 15.10
12 15.10
13 15.10
14 15.10
15 15.10
16 15.10
17 15.10
18 15.10
19 15.10
20 15.10
21 15.10
00 16.10
03 16.10
04 16.10
05 16.10
06 16.10
07 16.10
08 16.10
09 16.10
10 16.10
11 16.10
12 16.10
13 16.10
14 16.10
15 16.10
16 16.10
17 16.10
18 16.10
19 16.10
20 16.10
21 16.10
00 17.10
03 17.10
04 17.10
05 17.10
06 17.10
07 17.10
08 17.10
09 17.10
10 17.10
11 17.10
12 17.10
13 17.10
14 17.10
15 17.10
16 17.10
17 17.10
18 17.10
19 17.10
20 17.10
21 17.10
00 18.10
03 18.10
04 18.10
05 18.10
06 18.10
Ветер
(напр.,м/с)
Видим. Явления Облачность Т
(С)
Тd
(С)
f
(%)
Тe
(С)
Тes
(С)
Комфортность P
(гПа)
Po
(гПа)
Тmin
(С)
Tmax
(С)
R
(мм)
R24
(мм)
S
(см)
ЮВ 1 8000 м дымка 10/10 300 м
[St]
+11.6 +9.8 89 +11 +11 тепло 1026.1 1006.4
Ю 2 8000 м дымка 10/10 300 м
[St]
+12.1 +9.5 84 +11 +11 тепло 1026.7 1007.0
В 1 8000 м дымка 10/10 300 м
[St]
+13.2 +10.1 81 +13 +13 тепло 1026.6 1007.0
ЮВ 1 8000 м дымка 8/8 600 м
[Cu Sc]
+14.0 +10.6 80 +14 +15 тепло 1026.0 1006.5
ЮВ 2 8000 м дымка 10/10 300 м
[St]
+15.2 +10.8 75 +15 +15 тепло 1025.5 1006.1
В 2 10 км 10/10 600 м
[St]
+14.7 +10.8 77 +14 +14 тепло 1025.1 1005.7
Ю 1 15 км 10/10 1000 м
[Sc]
+14.4 +10.5 77 +15 +15 тепло 1024.8 1005.3
ЮВ 2 н/о н/о +14.7 +10.6 76 +14 +14 тепло 1024.6 1005.1
ЮВ 2 н/о н/о +14.8 +10.7 76 +15 +15 тепло 1024.1 1004.6
ЮЗ 1 н/о н/о +13.8 +10.3 79 +14 +14 тепло 1024.2 1004.7
Ю 1 н/о н/о +13.7 +9.8 77 +14 +14 тепло 1024.2 1004.7
ЮЗ 2 15 км 9/9 600 м
[St]
+13.6 +10.0 79 +13 +13 тепло 1023.9 1004.4 +15.3
Ю 2 15 км 9/9 600 м
[St]
+13.4 +10.2 81 +13 +13 тепло 1023.7 1004.2
Ю 2 15 км 3/3 1000 м
[Sc]
+13.1 +10.2 83 +12 +12 тепло 1023.6 1004.1
З 1 н/о н/о +12.7 +10.3 85 +13 +13 тепло 1023.9 1004.3
З 2 н/о н/о +11.6 +10.1 91 +10 +10 тепло 1023.3 1003.6
З 4 н/о н/о +11.2 +10.2 94 +9 +9 тепло 1022.7 1003.0
ЮЗ 3 н/о н/о +11.4 +10.4 94 +9 +9 тепло 1022.6 1002.9
ЮЗ 2 н/о н/о +11.5 +10.5 94 +10 +10 тепло 1022.6 1002.9
З 2 2000 м дымка 10/10 300 м
[St]
+11.0 +10.4 96 +10 +10 тепло 1022.6 1003.0 +10.7
З 1 2000 м дымка 10/10 300 м
[St]
+11.3 +10.4 94 +11 +11 тепло 1022.6 1003.0
З 2 6000 м дымка 10/10 300 м
[St]
+11.4 +9.6 89 +10 +10 тепло 1022.7 1003.1
ЮЗ 1 25 км 5/5 600 м
[St]
+12.8 +10.3 85 +13 +16 тепло 1022.9 1003.4
ЮЗ 1 40 км 1/0
[Ac trans]
+14.8 +10.8 77 +15 +23 тепло 1022.6 1003.2
З 3 50 км 1/1 1000 м
[Cu hum]
+18.0 +10.4 61 +18 +24 тепло 1022.0 1002.8
ЮЗ 4 60 км ясно +19.9 +11.3 58 +21 +26 комфорт 1021.1 1002.1
ЮЗ 5 60 км ясно +21.5 +11.3 52 +23 +23 комфорт 1020.7 1001.7
З 5 н/о н/о +21.5 +10.4 49 +23 +23 комфорт 1020.6 1001.6
З 4 н/о н/о +21.3 +11.4 53 +23 +23 комфорт 1020.4 1001.4
ЮЗ 3 н/о н/о +20.0 +11.6 58 +22 +22 комфорт 1020.5 1001.4
З 3 н/о н/о +18.2 +11.6 65 +19 +19 тепло 1021.1 1001.9
З 2 60 км ясно +17.1 +12.2 73 +17 +17 тепло 1021.0 1001.8 +21.5
З 4 30 км ясно +16.1 +12.2 78 +15 +15 тепло 1021.4 1002.1
З 2 20 км ясно +15.4 +12.1 81 +15 +15 тепло 1021.5 1002.2
З 3 н/о н/о +14.5 +11.5 82 +14 +14 тепло 1022.0 1002.6
ЮЗ 1 н/о н/о +13.1 +11.1 88 +13 +13 тепло 1021.8 1002.3
З 2 н/о н/о +12.7 +10.5 86 +12 +12 тепло 1021.3 1001.7
З 2 н/о н/о +12.2 +10.3 88 +11 +11 тепло 1021.4 1001.8
З 3 н/о н/о +12.6 +10.6 88 +11 +11 тепло 1021.5 1001.9
ЮЗ 2 30 км 8/0
[Ac As Ci fib]
+13.0 +10.9 87 +12 +12 тепло 1021.2 1001.7 +12.4
З 2 30 км 8/1 1000 м
[Cu hum Ac As Ci sp]
+13.6 +11.1 85 +13 +14 тепло 1021.5 1002.1
З 2 30 км 6/1 1000 м
[Cu hum Ac As Ci fib]
+13.8 +11.3 85 +13 +15 тепло 1021.9 1002.5
Ю 2 30 км 4/1 1000 м
[Cu hum Ci sp]
+16.8 +12.4 75 +17 +21 тепло 1021.5 1002.3
Ю 2 30 км 3/1 1000 м
[Cu hum Ci sp]
+18.8 +12.5 67 +20 +26 тепло 1021.3 1002.2
ЮЗ 3 40 км 4/1 1000 м
[Cu hum Ci sp]
+20.0 +12.7 63 +22 +27 комфорт 1020.9 1001.9
ЮЗ 3 40 км 6/1 1000 м
[Cu hum Ci sp]
+21.1 +13.8 63 +24 +28 комфорт 1020.3 1001.4
Ю 2 40 км 8/0
[Ci sp]
+21.8 +13.6 60 +25 +29 комфорт 1019.9 1001.0
ЮЗ 2 н/о н/о +22.8 +13.9 57 +26 +26 жарко 1020.2 1001.3
З 1 н/о н/о +22.4 +13.8 58
СЗ 1 н/о н/о +21.3 +13.8 62 +24 +24 комфорт 1020.3 1001.3
З 1 н/о н/о +19.4 +14.1 71 +22 +22 комфорт 1020.7 1001.6
З 2 40 км 4/0
[Ci fib]
+19.0 +12.5 66 +21 +21 комфорт 1020.5 1001.4 +22.6
З 2 40 км 3/0
[Ci fib]
+17.8 +12.8 73 +18 +18 тепло 1020.7 1001.6
З 2 40 км 3/0
[Ac trans Ci fib]
+16.4 +13.0 80 +17 +17 тепло 1020.9 1001.7
З 2 н/о н/о +16.8 +11.4 70 +17 +17 тепло 1021.6 1002.3
З 2 н/о н/о +14.4 +11.8 84 +14 +14 тепло 1021.6 1002.2
З 2 н/о н/о +13.1 +11.7 91 +12 +12 тепло 1021.0 1001.5
З 2 н/о н/о +12.8 +11.3 91 +12 +12 тепло 1020.9 1001.4
З 2 н/о н/о +12.6 +11.2 91 +12 +12 тепло 1020.8 1001.2
З 1 15 км 8/3 1000 м
[Cu Sc Ac trans Ci sp]
+12.7 +11.3 91 +13 +13 тепло 1020.7 1001.2 +12.6
З 1 12 км 8/3 1000 м
[Cu med, cong Ac trans Ci sp]
+13.2 +11.4 89 +13 +14 тепло 1021.1 1001.6
Ю 1 15 км 8/1 1000 м
[Cu hum Ac trans Ci sp]
+14.3 +11.7 84 +15 +17 тепло 1021.0 1001.6
ЮЗ 1 18 км 6/0
[Ac trans Ci sp]
+16.2 +12.3 78 +17 +21 тепло 1020.9 1001.6
ЮЗ 1 20 км 4/0
[Ac trans Ci sp]
+18.0 +12.7 71 +19 +25 тепло 1020.5 1001.4
ЮЗ 3 20 км 4/0
[Ac trans Ci sp]
+19.6 +12.3 63 +21 +26 комфорт 1020.0 1001.0
ЮЗ 2 25 км 4/0
[Ac trans Ci sp]
+20.8 +12.4 59 +24 +29 комфорт 1018.9 1000.0
З 1 25 км 8/0
[Ac As]
+21.2 +12.7 58 +23 +26 комфорт 1018.7 999.8
З 2 н/о н/о +21.2 +13.2 60 +24 +24 комфорт 1018.4 999.5
З 1 н/о н/о +20.9 +13.4 62 +25 +25 комфорт 1018.1 999.1
С 1 н/о н/о +20.2 +13.9 67 +24 +24 комфорт 1018.1 999.1
С 1 н/о н/о +19.0 +13.9 72 +21 +21 комфорт 1018.3 999.2
С 1 20 км 8/0
[Cs]
+17.6 +13.8 78 +19 +19 тепло 1017.9 998.8 +21.1
СЗ 1 20 км 4/0
[Ci sp]
+17.4 +13.4 77 +18 +18 тепло 1017.7 998.6
З 2 20 км 6/0
[Ci sp]
+16.8 +13.0 78 +17 +17 тепло 1017.9 998.7
ЮЗ 2 н/о н/о +15.8 +13.2 85
З 2 н/о н/о +13.7 +12.5 92 +13 +13 тепло 1018.1 998.7
ЮЗ 1 н/о н/о +12.7 +11.3 91 +13 +13 тепло 1017.1 997.6
З 3 н/о н/о +13.2 +11.2 88 +12 +12 тепло 1016.8 997.4
З 2 н/о н/о +12.8 +10.9 88 +12 +12 тепло 1016.8 997.3
ЮЗ 2 25 км 1/1 1000 м
[Cu hum]
+12.6 +10.8 89 +12 +12 тепло 1016.6 997.2 +12.4
З 2 30 км 4/0
[Ac trans Ci fib]
+13.7 +11.4 86 +13 +14 тепло 1016.7 997.4
З 2 30 км 3/1 1000 м
[Cu hum Ac trans]
+15.3 +11.9 80 +15 +17 тепло 1016.8 997.6
ЮЗ 3 30 км ясно +16.6 +11.8 73 +16 +20 тепло 1016.5 997.4
ЮЗ 3 40 км 1/1 1000 м
[Cu hum]
+19.4 +12.6 65 +21 +26 комфорт 1016.0 997.0
ЮЗ 4 40 км 1/1 1000 м
[Cu hum]
+21.0 +12.8 59 +24 +28 комфорт 1015.1 996.3
З 4 50 км 1/1 1000 м
[Cu med, cong]
+21.7 +12.9 57 +24 +28 комфорт 1014.5 995.7
ЮЗ 4 60 км 3/3 1000 м
[Cu med, cong]
+22.7 +13.4 56 +26 +28 жарко 1013.7 995.0
З 5 н/о н/о +22.8 +12.8 53 +26 +26 жарко 1013.4 994.7
ЮЗ 3 н/о н/о +22.1 +12.1 53 +24 +24 комфорт 1013.2 994.4
ЮЗ 2 н/о н/о +20.6 +12.1 58 +23 +23 комфорт 1013.2 994.3
З 2 н/о н/о +19.5 +12.1 62 +21 +21 комфорт 1013.6 994.6
С 2 30 км 3/0
[Ac trans Ci sp]
+18.2 +12.4 69 +19 +19 тепло 1013.0 994.0 +23.3
СЗ 1 30 км ясно +17.6 +11.9 69 +19 +19 тепло 1013.4 994.4
З 2 30 км ясно +16.3 +12.1 76 +16 +16 тепло 1013.7 994.6
СЗ 2 н/о н/о +16.1 +11.3 73 +16 +16 тепло 1014.2 995.0
З 1 н/о н/о +14.5 +11.3 81 +15 +15 тепло 1013.8 994.5
СВ 2 н/о н/о +13.8 +11.0 83 +13 +13 тепло 1013.4 994.1
В 2 н/о н/о +13.1 +11.1 88 +12 +12 тепло 1013.7 994.3
СВ 1 н/о н/о +13.4 +11.2 87 +14 +14 тепло 1014.1 994.7
З 1 25 км 9/9 1000 м
[Sc]
+13.3 +11.4 88 +13 +13 тепло 1014.4 995.1 +12.9
СЗ 2 15 км в посл. час дождь 10/10 1000 м
[Sc]
+14.8 +12.8 88 +14 +14 тепло 1015.0 995.8
СЗ 2 15 км слаб. дождь 10/10 1000 м
[Sc]
+15.4 +13.7 90 +15 +15 тепло 1015.6 996.4
В 1 10 км в посл. час дождь 10/10 1000 м
[Sc]
+15.1 +13.4 90 +16 +16 тепло 1016.1 996.9
Ю 1 18 км {дождь} 9/9 1000 м
[Sc]
+16.1 +13.6 85 +17 +18 тепло 1016.4 997.2
ЮВ 2 18 км {дождь} 9/9 1000 м
[Sc]
+17.3 +13.8 80 +18 +18 тепло 1016.4 997.3
СЗ 1 25 км {дождь} 9/9 1000 м
[Sc]
+17.8 +13.9 78 +19 +20 тепло 1016.0 997.0 1
ЮВ 1 25 км пыль 9/9 1000 м
[Sc]
+18.3 +14.4 78 +20 +20 тепло 1016.0 997.0
В 1 н/о н/о +18.9 +14.2 74 +21 +21 комфорт 1016.5 997.4
В 2 н/о н/о +18.9 +14.4 75 +21 +21 комфорт 1016.5 997.4
СВ 3 н/о н/о +17.2 +13.8 80 +17 +17 тепло 1017.3 998.1
СВ 3 н/о н/о +16.2 +13.7 85 +16 +16 тепло 1018.1 998.8
В 3 15 км 5/5 600 м
[St]
+15.6 +13.2 86 +15 +15 тепло 1018.0 998.8 +19.0 1
СВ 3 25 км ясно +14.9 +11.8 82 +14 +14 тепло 1018.3 999.0
СВ 2 20 км ясно +14.6 +10.7 77 +14 +14 тепло 1018.7 999.4
С 2 н/о н/о +14.1 +10.8 81 +14 +14 тепло 1019.6 1000.2
В 1 н/о н/о +12.8 +11.3 91 +13 +13 тепло 1019.9 1000.4
ЮЗ 1 н/о н/о +11.5 +10.2 92 +11 +11 тепло 1019.6 1000.0
СЗ 1 н/о н/о +11.4 +10.1 92 +11 +11 тепло 1019.6 1000.0
СЗ 1 н/о н/о +11.4 +10.4 94 +11 +11 тепло 1019.5 999.9
С 1 6000 м дымка 9/9 600 м
[St]
+11.6 +10.7 94 +11 +11 тепло 1019.0 999.5 +11.4
СЗ 1 8000 м дымка 10/10 300 м
[St]
+12.5 +11.2 92 +12 +12 тепло 1019.7 1000.2
З 1 9000 м дымка 10/10 300 м
[St]
+13.7 +12.0 89 +14 +14 тепло 1019.7 1000.3
Ю 2 12 км 10/10 600 м
[St]
+14.9 +12.5 86 +15 +15 тепло 1019.7 1000.4
ЮЗ 2 20 км 10/10 600 м
[St]
+14.7 +12.3 86 +14 +14 тепло 1019.6 1000.3
Ю 1 25 км 9/9 600 м
[St]
+16.0 +12.8 81 +17 +18 тепло 1019.2 1000.0
ЮВ 2 30 км 6/4 600 м
[Cu hum Ci sp]
+18.0 +12.8 72 +19 +22 тепло 1018.3 999.2
Ю 2 35 км 5/1 600 м
[Cu hum Ac trans Ci fib]
+17.8 +12.8 73 +18 +21 тепло 1018.1 999.0
В 1 н/о н/о +18.5 +12.3 67 +20 +20 тепло 1018.0 998.9
Ю 1 н/о н/о +18.6 +12.2 66 +20 +20 тепло 1017.7 998.6
В 2 н/о н/о +17.6 +12.8 73 +18 +18 тепло 1017.7 998.5
СВ 2 н/о н/о +16.2 +12.6 79 +16 +16 тепло 1018.1 998.8
СВ 2 25 км ясно +15.6 +12.2 80 +16 +16 тепло 1017.7 998.5 +18.5
СВ 3 25 км ясно +16.0 +12.3 79 +16 +16 тепло 1017.6 998.4
СВ 1 25 км ясно +14.4 +12.0 85 +15 +15 тепло 1017.9 998.6
штиль 0 н/о н/о +13.7 +11.8 88 +13 +13 тепло 1018.4 999.0
З 2 н/о н/о +12.3 +10.3 88
З 2 н/о н/о +11.0 +9.5 90 +10 +10 тепло 1017.6 998.0
З 2 н/о н/о +11.4 +9.4 88 +10 +10 тепло 1017.5 997.9
З 2 н/о н/о +11.4 +9.2 86 +10 +10 тепло 1017.4 997.8
ЮЗ 1 30 км 5/3 1000 м
[Cu Sc Ac trans Ci sp]
+11.4 +9.4 88 +11 +11 тепло 1017.2 997.7 +11.1
Местоположение метеостанции Загреб-Градец (Хорватия): широта 45.82 долгота 15.98 высота над уровнем моря 157 м.
В архиве по умолчанию представлена погода в Загреб-Градеце за последнюю неделю. Архивные данные за месяц целиком и за предыдущие месяцы, начиная с января 2011 года, Вы можете получить, выбрав интересующий диапазон дат из раскрывающегося списка и нажав кнопку "Найти!".
*Определитесь, кто Вы:
Внимание! Время в таблицах - всемирное. Для получения местного времени необходимо прибавить поправку, которая равна 1 ч.
Смотрите также архив погоды в соседних городах и на ближайших метеорологических станциях:
Партнеры нашего сайта:      
Пояснения к столбцам:
  • Ветер - указаны скорость ветра в м/с - средняя за 10 мин, порывы в срок и между сроками (в фигурных скобках) и направление, откуда дует ветер: С - северный,
  • СВ - северо-восточный, В - восточный, ЮВ - юго-восточный, Ю - южный, ЮЗ - юго-западный, З - западный, СЗ - северо-западный.
  • Видимость - горизонтальная дальность видимости в метрах или километрах. При видимости от 1 до 10 км при отсутствии осадков обычно наблюдается дымка, при ухудшении видимости до 1 км и менее - туман. В сухую погоду видимость может ухудшаться дымом, пылью или мглою.
  • Явления - указаны атмосферные явления, наблюдавшиеся в срок или в последний час перед сроком; фигурными скобками обозначены явления, наблюдавшиеся между сроками (за 1-3 часа до срока); квадратными скобками обозначены град или гололедные отложения с указанием их диаметра в мм.
  • Облачность - указаны через наклонную черту общая и нижняя облачность в баллах и высота нижней границы облаков в метрах; квадратными скобками обозначены формы облаков: Ci - перистые, Cs - перисто-слоистые, Cc - перисто-кучевые, Ac - высококучевые, As - высокослоистые, Sc - слоисто-кучевые, Ns - слоисто-дождевые, Cu - кучевые, Cb - кучево-дождевые. Подробнее классификацию облаков см. в Атласе облаков (PDF).
  • T - Температура воздуха - температура, измеренная на высоте 2 м над землей.
  • Td - Температура точки росы - температура, при понижении до которой содержащийся в воздухе водяной пар достигнет насыщения.
  • f - Относительная влажность воздуха - влажноcть воздуха, измеренная на высоте 2 м над землей.
  • Te - Эффективная температура - температура, которую ощущает одетый по сезону человек в тени. Характеристика душности погоды. При расчете учитывается влияние влажности воздуха и скорости ветра на теплоощущения человека.
  • Tes - Эффективная температура на солнце - температура, которую ощущает человек, с поправкой на солнечный нагрев. Характеристика знойности погоды. Зависит от высоты солнца над горизонтом, облачности и скорости ветра. Ночью, в пасмурную погоду, а также при ветре 12 м/с и более поправка равна нулю.
  • P - Атмосферное давление - приведенное к уровню моря атмосферное давление.
  • Po - Атмосферное давление - измеренное на уровне метеостанции атмосферное давление.
  • Tmin - Минимальная температура - минимум температуры воздуха на высоте 2 м над землей.
  • Tmax - Максимальная температура - максимум температуры воздуха на высоте 2 м над землей.
  • R - Количество осадков - Количество выпавших осадков за период времени, мм. При наведении курсора мыши на число - период времени, за который выпало указанное количество осадков.
  • R24 - Количество осадков - Количество выпавших осадков за 24 часа, мм.
  • S - Снежный покров - Высота снежного покрова, см. При наведении курсора мыши на число - состояние снежного покрова и степень покрытия местности в баллах.